STARLINK-1833 (46759 NORAD) Tracking and Keplerian Element Data

This shows tracking and keplerian element data for the satellite.

Feedback or suggestion? Click here.




ElementValue
Catalog46759
NameSTARLINK-1833
Epoch Orbit176
Epoch Day14.91667824
Epoch Year2021
RAAN135.2951
Inclination53.0414
Eccentricity0.0001403
Argument of Perigee89.0305
Mean Anonmoly287.2635
Mean Motion15.06395542
Decay Rate-0.00025693
L11 46759U 20074W 21014.91667824 -.00025693 00000-0 -17124-2 0 9999
L22 46759 53.0414 135.2951 0001403 89.0305 287.2635 15.06395542 1766

Live tracking and technical data element details for STARLINK-1833 (NORAD 46759). STARLINK-1833 can be tracked NOW for your location showing map with azimuth and elevation plus other details from your city location.

Track the satellite on the map from your city or location and see movement details for azimuth, elevation, latitude, longitude, range, height, and movement on the map or in text.







IsCatalogInMostPopularTable: catalog: 46759, numindb: 28
Update: records affected: 1



GetName: 46759 STARLINK-1833

Hit Count: updated at: Sat, 16 Jan 2021 00:19:17 GMT